[[{"header":{"parameterUnit":"m.s-1","parameterCategory":1,"la1":30.2991,"la2":30.254,"lo1":-89.0895,"lo2":-89.0444,"dy":0.0017,"dx":0.0017,"nx":28,"ny":28,"refTime":"2024-08-30T09:00:00:Z","depth":0,"parameterNumber":2,"parameterNumberName":"U-component_of_WINDS"},"data":[0,0,0,0,0,0,0,0,0,0,0,0,0,0,0,0,0,0,0,0,0,0,0,0,0,0,0,0,0,0,0,0,0,0,0,0,0,0,0,0,0,0,0,0,0,0,0,0,0,0,0,0,0,0,0,0,0,0,-6.3265,-6.3265,0,-6.3199,-6.3198,-6.3197,-6.3027,-6.3023,-6.302,-6.3016,-6.2953,-6.2954,-6.2956,0,0,0,0,0,0,0,0,0,0,0,0,0,-6.3252,-6.3253,-6.3266,-6.3265,-6.3264,-6.3199,-6.3198,-6.3197,-6.3028,-6.3023,-6.3019,-6.3015,-6.2952,-6.2954,-6.2956,0,0,0,0,0,0,0,0,0,0,0,0,0,-6.3229,-6.3254,-6.3266,-6.3171,-6.3162,-6.3199,-6.3198,-6.3197,-6.3029,-6.3023,-6.3018,-6.3013,-6.2952,-6.2954,-6.2956,-6.3081,0,0,-6.2964,-6.2965,0,0,0,0,0,0,0,0,-6.3231,-6.323,-6.3186,-6.3178,-6.3168,-6.3115,-6.317,-6.3158,-6.303,-6.308,-6.3016,-6.301,-6.3012,-6.3009,-6.3008,-6.3078,-6.3075,-6.2964,-6.2966,-6.2967,-6.2968,0,0,0,0,0,0,0,-6.3233,-6.3232,-6.3239,-6.3186,-6.3175,-6.3134,-6.3125,-6.3167,-6.3077,-6.3075,-6.3062,-6.3056,-6.3006,-6.3006,-6.3006,-6.3074,-6.2964,-6.2967,-6.2968,-6.2969,-6.3242,-6.3248,0,0,0,0,0,0,-6.3247,-6.3234,-6.3241,-6.3237,-6.3186,-6.3139,-6.3129,-6.3138,-6.3076,-6.3061,-6.3061,-6.3049,-6.3005,-6.3003,-6.3003,-6.3142,-6.2967,-6.2969,-6.2971,-6.3237,-6.3244,-6.325,0,0,0,0,0,0,-6.3247,-6.3249,-6.3244,-6.3232,-6.3228,-6.3145,-6.3157,-6.3139,-6.314,-6.3066,-6.3049,-6.3078,-6.3,-6.2999,-6.3062,-6.3138,-6.2971,-6.2973,-6.323,-6.3239,-6.3247,-6.3424,0,0,0,0,0,0,-6.3248,-6.325,-6.3295,-6.3235,-6.323,-6.3303,-6.3161,-6.3142,-6.3144,-6.3127,-6.3077,-6.3064,-6.2996,-6.3059,-6.3065,-6.3138,-6.2975,-6.3223,-6.3234,-6.3244,-6.3411,-6.3438,-6.3461,0,0,0,0,0,-6.3248,-6.3349,-6.3298,-6.33,-6.3284,-6.3308,-6.3305,-6.3224,-6.3151,-6.3196,-6.3149,-6.3065,-6.313,-6.3067,-6.3072,-6.3147,-6.3217,-6.3231,-6.3243,-6.34,-6.3433,-6.346,0,0,0,0,0,0,-6.3421,-6.3339,-6.3282,-6.3366,-6.3345,-6.3279,-6.3332,-6.3261,-6.3262,-6.3246,-6.3147,-6.3137,-6.3214,-6.3188,-6.3119,-6.3265,-6.316,-6.3175,-6.3278,-6.3308,-6.3333,-6.3335,-6.2977,0,0,0,0,0,-6.3469,-6.3494,-6.3422,-6.3503,-6.3495,-6.3417,-6.3424,-6.3364,-6.3339,-6.3329,-6.3286,-6.3267,-6.3282,-6.3295,-6.3305,-6.3409,-6.3395,-6.3463,-6.3488,-6.3509,-6.3521,-6.3573,-6.3602,-6.3292,-6.3292,-6.3292,0,0,-6.3568,-6.3527,-6.3548,-6.3537,-6.3513,-6.3542,-6.341,-6.3447,-6.3467,-6.3335,-6.339,-6.336,-6.3331,-6.3415,-6.345,-6.3395,-6.3605,-6.3525,-6.3542,-6.3543,-6.3589,-6.3619,-6.3645,-6.3301,-6.3299,-6.3298,0,0,-6.3762,-6.3735,-6.3798,-6.3778,-6.3744,-6.3691,-6.3708,-6.3653,-6.3626,-6.3681,-6.3582,-6.3608,-6.3637,-6.362,-6.3616,-6.3809,-6.3731,-6.3816,-6.3943,-6.3995,-6.4019,-6.404,-6.4107,-6.4132,-6.3829,-6.383,-6.383,0,-6.389,-6.3927,-6.384,-6.3882,-6.388,-6.3763,-6.3827,-6.3813,-6.3785,-6.3787,-6.3727,-6.3762,-6.3735,-6.3812,-6.3859,-6.3861,-6.3876,-6.3818,-6.4023,-6.4043,-6.4061,-6.4124,-6.4149,-6.384,-6.3839,-6.3838,-6.3837,0,-6.4085,-6.4114,-6.417,-6.4144,-6.4149,-6.4203,-6.4125,-6.4142,-6.4083,-6.4038,-6.4096,-6.406,-6.406,-6.4076,-6.4019,-6.4146,-6.4113,-6.404,-6.3932,-6.4102,-6.4159,-6.4182,-6.3854,-6.3851,-6.3848,-6.3845,0,0,-6.4381,-6.4309,-6.433,-6.4317,-6.4273,-6.4294,-6.4345,-6.4344,-6.4359,-6.4347,-6.4385,-6.4415,-6.4347,-6.4342,-6.4284,-6.433,-6.4483,-6.4251,-6.4248,-6.4292,-6.4619,-6.4671,-6.47,-6.4434,-6.4438,-6.4441,-6.462,0,-6.4561,-6.4638,-6.4563,-6.4656,-6.4681,-6.4572,-6.4616,-6.4595,-6.4556,-6.4573,-6.453,-6.4551,-6.4462,-6.4458,-6.4499,-6.4455,-6.4546,-6.4442,-6.4468,-6.447,-6.4473,-6.4729,-6.4784,-6.4954,-6.4642,-6.4646,-6.4648,0,-6.478,-6.4775,-6.487,-6.4821,-6.4829,-6.4869,-6.4862,-6.4881,-6.4856,-6.4824,-6.4821,-6.475,-6.4797,-6.4696,-6.476,-6.4691,-6.4698,-6.4679,-6.4684,-6.4679,-6.4566,-6.4729,-6.5007,-6.5031,-6.4683,-6.468,-6.4678,0,-6.4982,-6.5001,-6.5059,-6.5052,-6.4997,-6.5028,-6.5007,-6.4976,-6.4982,-6.4978,-6.498,-6.4984,-6.4985,-6.4991,-6.4923,-6.4856,-6.4995,-6.4888,-6.4969,-6.4971,-6.4999,-6.4997,-6.5279,-6.5012,-6.5012,-6.5011,-6.5011,0,-6.5188,-6.525,-6.5149,-6.5185,-6.5252,-6.5168,-6.5237,-6.5205,-6.518,-6.5209,-6.5118,-6.5147,-6.5058,-6.5079,-6.5028,-6.5088,-6.509,-6.5066,-6.505,-6.5071,-6.5074,-6.5071,-6.5056,-6.5018,-6.5016,-6.5015,-6.5014,0,-6.5422,-6.5358,-6.5414,-6.5358,-6.5346,-6.5398,-6.535,-6.5382,-6.5339,-6.5377,-6.5381,-6.5313,-6.5333,-6.5268,-6.5278,-6.5244,-6.5331,-6.5298,-6.5338,-6.5326,-6.541,-6.5402,-6.5695,-6.5729,-6.5445,-6.5448,-6.545,0,-6.5555,-6.56,-6.5549,-6.5561,-6.5545,-6.5566,-6.5571,-6.5492,-6.55,-6.5477,-6.5513,-6.5525,-6.553,-6.5569,-6.5521,-6.5529,-6.5493,-6.5596,-6.5494,-6.5513,-6.5491,-6.5487,-6.5491,-6.5616,-6.5619,-6.5622,-6.5625,0,-6.5798,-6.5764,-6.5773,-6.5772,-6.578,-6.5776,-6.5766,-6.5782,-6.5697,-6.5713,-6.5731,-6.5736,-6.5747,-6.576,-6.5759,-6.5738,-6.5668,-6.5658,-6.5676,-6.5696,-6.5715,-6.5703,-6.5391,-6.565,-6.5648,-6.5646,-6.5644,-6.5643,-6.5982,-6.6017,-6.5986,-6.6,-6.5985,-6.5978,-6.6005,-6.5965,-6.5979,-6.598,-6.5934,-6.5963,-6.5939,-6.5929,-6.5917,-6.5939,-6.5892,-6.592,-6.5926,-6.5933,-6.5945,-6.5717,-6.594,-6.5939,-6.5938,-6.5937,-6.5937,0,-6.6216,-6.6192,-6.6207,-6.6195,-6.6207,-6.614,-6.6126,-6.6141,-6.6166,-6.615,-6.6158,-6.618,-6.6194,-6.6149,-6.6157,-6.6183,-6.6151,-6.6188,-6.6183,-6.6179,-6.5989,-6.597,-6.6214,-6.6214,-6.6214,-6.6213,-6.6213,-6.6213,-6.6339,-6.6394,-6.6358,-6.6405,-6.638,-6.6406,-6.6404,-6.6398,-6.6384,-6.6413,-6.6424,-6.6394,-6.6367,-6.6372,-6.6383,-6.6369,-6.6375,-6.6422,-6.6398,-6.622,-6.6193,-6.6167,-6.6148,-6.6425,-6.6426,-6.6585,-6.6587,-6.6588]},{"header":{"parameterUnit":"m.s-1","parameterCategory":1,"la1":30.2991,"la2":30.254,"lo1":-89.0895,"lo2":-89.0444,"dy":0.0017,"dx":0.0017,"nx":28,"ny":28,"refTime":"2024-08-30T09:00:00:Z","depth":0,"parameterNumber":3,"parameterNumberName":"V-component_of_WINDS"},"data":[0,0,0,0,0,0,0,0,0,0,0,0,0,0,0,0,0,0,0,0,0,0,0,0,0,0,0,0,0,0,0,0,0,0,0,0,0,0,0,0,0,0,0,0,0,0,0,0,0,0,0,0,0,0,0,0,0,0,0.7078,0.7077,0,0.7027,0.7026,0.7026,0.6976,0.6976,0.6975,0.6974,0.6921,0.692,0.6919,0,0,0,0,0,0,0,0,0,0,0,0,0,0.7134,0.7133,0.7078,0.7077,0.7077,0.7027,0.7026,0.7025,0.6976,0.6976,0.6975,0.6974,0.6921,0.692,0.6919,0,0,0,0,0,0,0,0,0,0,0,0,0,0.7099,0.7133,0.7078,0.7046,0.7043,0.7027,0.7026,0.7025,0.6976,0.6976,0.6975,0.6974,0.6922,0.692,0.6919,0.6931,0,0,0.6915,0.6915,0,0,0,0,0,0,0,0,0.7101,0.7097,0.7051,0.7048,0.7045,0.7007,0.7026,0.6993,0.6977,0.7002,0.6974,0.6973,0.695,0.6947,0.6939,0.6928,0.6926,0.6915,0.6915,0.6914,0.6914,0,0,0,0,0,0,0,0.7103,0.7099,0.7058,0.7051,0.7047,0.7035,0.7029,0.702,0.6982,0.6999,0.6996,0.699,0.6948,0.694,0.6938,0.6925,0.6915,0.6914,0.6914,0.6913,0.6923,0.6924,0,0,0,0,0,0,0.7111,0.7101,0.7059,0.7056,0.7071,0.7034,0.7028,0.702,0.6982,0.6975,0.6991,0.6988,0.6943,0.6939,0.6935,0.6947,0.6914,0.6913,0.6912,0.6922,0.6923,0.6924,0,0,0,0,0,0,0.7112,0.7107,0.7061,0.7078,0.7071,0.7034,0.7026,0.7019,0.7011,0.6976,0.6969,0.699,0.6942,0.6937,0.6933,0.6945,0.6912,0.6911,0.6921,0.6922,0.6924,0.697,0,0,0,0,0,0,0.7114,0.7108,0.7112,0.7078,0.707,0.7059,0.7027,0.7019,0.701,0.7005,0.6973,0.6967,0.6941,0.6935,0.6931,0.6942,0.691,0.6919,0.6921,0.6923,0.6967,0.6973,0.6978,0,0,0,0,0,0.7116,0.7126,0.7112,0.7107,0.7074,0.706,0.7055,0.7026,0.7011,0.7014,0.6992,0.6968,0.6944,0.6935,0.6931,0.6941,0.6918,0.6921,0.6923,0.6965,0.6972,0.6978,0,0,0,0,0,0,0.7161,0.7121,0.7105,0.7104,0.7086,0.7052,0.7055,0.7034,0.7019,0.7016,0.698,0.6973,0.6973,0.6957,0.6947,0.6951,0.6928,0.693,0.6962,0.6968,0.6973,0.6977,0.6909,0,0,0,0,0,0.7171,0.7163,0.7129,0.7132,0.7123,0.7091,0.7084,0.7063,0.7042,0.7034,0.7011,0.6992,0.698,0.6973,0.6961,0.6966,0.6958,0.6971,0.6976,0.6981,0.6982,0.6985,0.6991,0.6932,0.6932,0.6932,0,0,0.7191,0.7169,0.7165,0.714,0.7123,0.7117,0.7085,0.7078,0.7073,0.7033,0.7027,0.7011,0.6987,0.6988,0.6987,0.6974,0.6998,0.6984,0.6988,0.6986,0.6988,0.6994,0.6999,0.6933,0.6933,0.6933,0,0,0.7224,0.7206,0.7207,0.7192,0.7168,0.7147,0.7147,0.7116,0.7104,0.7098,0.7069,0.7062,0.7043,0.7027,0.7017,0.7048,0.7026,0.7045,0.7073,0.7076,0.7081,0.7085,0.7096,0.7101,0.7047,0.7047,0.7047,0,0.7252,0.724,0.7211,0.7207,0.7197,0.7162,0.7164,0.715,0.7123,0.7117,0.7104,0.708,0.7062,0.7059,0.7067,0.706,0.706,0.7048,0.7082,0.7086,0.7089,0.71,0.7105,0.705,0.705,0.7049,0.7049,0,0.7277,0.7269,0.7273,0.7249,0.724,0.7239,0.7209,0.7204,0.7185,0.7165,0.7161,0.7138,0.7121,0.7119,0.71,0.7115,0.7108,0.7089,0.7065,0.7098,0.7108,0.7111,0.7053,0.7053,0.7052,0.7051,0,0,0.7334,0.7296,0.7298,0.7287,0.7259,0.7253,0.7251,0.7235,0.7231,0.7215,0.7212,0.7198,0.7182,0.717,0.7149,0.7152,0.718,0.7133,0.7132,0.7143,0.7196,0.721,0.7215,0.7166,0.7166,0.7167,0.7198,0,0.7363,0.7357,0.7331,0.7333,0.7327,0.7295,0.7294,0.7277,0.726,0.7252,0.7233,0.7224,0.7202,0.7195,0.7197,0.7176,0.719,0.7174,0.7163,0.7163,0.717,0.722,0.7234,0.7264,0.7201,0.7202,0.7202,0,0.7394,0.7381,0.7383,0.7357,0.7353,0.7352,0.7337,0.733,0.7311,0.7298,0.7287,0.7265,0.7262,0.724,0.7236,0.7226,0.7221,0.721,0.7211,0.7208,0.7184,0.7218,0.7273,0.7278,0.7208,0.7207,0.7207,0,0.7437,0.7419,0.7418,0.741,0.738,0.7381,0.7368,0.7348,0.7341,0.7328,0.7323,0.731,0.7302,0.7293,0.7267,0.7254,0.7267,0.7243,0.7257,0.7257,0.726,0.726,0.7314,0.7257,0.7257,0.7257,0.7257,0,0.7471,0.7473,0.7437,0.7437,0.7439,0.741,0.7414,0.7398,0.7381,0.7378,0.735,0.7347,0.7315,0.7308,0.7289,0.7289,0.7286,0.7276,0.7271,0.7278,0.728,0.7274,0.7271,0.7258,0.7258,0.7258,0.7257,0,0.7517,0.7494,0.7491,0.7464,0.7457,0.746,0.7437,0.7436,0.7418,0.7414,0.7411,0.7383,0.7375,0.7349,0.7334,0.7321,0.7327,0.7317,0.7334,0.733,0.7346,0.7345,0.7398,0.7404,0.7343,0.7344,0.7344,0,0.754,0.7542,0.7515,0.7512,0.7501,0.7494,0.7487,0.746,0.7454,0.7434,0.7436,0.7426,0.7416,0.7404,0.7383,0.7371,0.7361,0.7381,0.7359,0.7367,0.7362,0.7362,0.7362,0.7385,0.7386,0.7386,0.7387,0,0.7584,0.7573,0.7564,0.7552,0.7545,0.7534,0.7522,0.752,0.749,0.7485,0.7476,0.7469,0.7455,0.7445,0.7431,0.7419,0.7398,0.7394,0.7397,0.7404,0.7414,0.7409,0.7346,0.7393,0.7392,0.7392,0.7391,0.7391,0.7619,0.762,0.7602,0.7594,0.7582,0.7572,0.757,0.7553,0.7546,0.7532,0.7517,0.7511,0.7494,0.7473,0.7463,0.7458,0.7446,0.745,0.7451,0.7452,0.7456,0.7416,0.7455,0.7455,0.7455,0.7455,0.7454,0,0.7661,0.7649,0.7642,0.7627,0.7621,0.7603,0.7589,0.7586,0.7581,0.7567,0.7559,0.755,0.7542,0.7521,0.751,0.751,0.7501,0.7509,0.7508,0.7506,0.7467,0.7466,0.7517,0.7517,0.7517,0.7517,0.7517,0.7517,0.7683,0.7683,0.767,0.7665,0.7653,0.7647,0.7641,0.7632,0.7621,0.7613,0.7606,0.7593,0.7577,0.7565,0.7557,0.7551,0.7549,0.756,0.7551,0.7514,0.7508,0.7503,0.7501,0.7559,0.7559,0.759,0.759,0.7591]}]]